Flag Weather past 2 weeks in Kornwestheim, Baden-Württemberg, Germany

Now
52 °F

Clear.


Feels Like: 52 °F
Forecast: 47 / 65 °F
Wind: No wind

Location: Stuttgart-Echterdingen

Current Time: Oct 31, 2014 at 10:03:08 PM

Latest Report: Oct 31, 2014 at 9:20 PM


Visibility: 10 mi

Pressure: 30.27 "Hg

Humidity: 88%

Dew point: 48 °F

Location of KornwestheimLocation

Historic Weather in Kornwestheim — Graph

°F

Kornwestheim temperature yesterday

Maximum temperature yesterday: 57 °F (at 1:50 PM)
Minimum temperature yesterday: 45 °F (at 12:20 AM)
Average temperature yesterday: 50 °F

Past Weeks' High & Low Weather Summary

 TemperatureHumidityPressure
High75 °F (Oct 19, 3:20 PM)100% (Oct 17, 5:50 AM)30.33 "Hg (Oct 17, 5:50 AM)
Low36 °F (Oct 28, 12:20 AM)50% (Oct 19, 3:50 PM)29.65 "Hg (Oct 21, 6:20 PM)
Average51 °F85%30.14 "Hg
* Reported Oct 16 9:20 PM — Oct 31 8:50 PM, Kornwestheim, Weather by CustomWeather, © 2014

Note: Actual official high and low records may vary slightly from our data, if they occured in-between our weather recording intervals... More about our weather records

Advertising

Kornwestheim weather history for previous 24 hours

 ConditionsComfort  
Time TempWeatherWind HumidityBarometerVisibility
8:50 PM
Oct 31
52 °FClear.1 mph88%30.27 "Hg10 mi
8:20 PM52 °FClear.1 mph88%30.27 "Hg10 mi
7:50 PM54 °FClear.1 mph82%30.24 "Hg10 mi
7:20 PM55 °FClear.3 mph82%30.27 "Hg10 mi
6:50 PM55 °FClear.2 mph82%30.27 "Hg10 mi
6:20 PM57 °FClear.1 mph77%30.27 "Hg10 mi
5:50 PM57 °FClear.2 mph77%30.27 "Hg10 mi
5:20 PM59 °FClear.3 mph72%30.27 "Hg10 mi
4:50 PM61 °FSunny.3 mph72%30.27 "Hg10 mi
4:20 PM63 °FSunny.5 mph68%30.27 "Hg10 mi
3:50 PM63 °FSunny.3 mph64%30.27 "Hg10 mi
3:20 PM63 °FSunny.3 mph68%30.27 "Hg10 mi
2:50 PM64 °FSunny.3 mph60%30.27 "Hg10 mi
2:20 PM63 °FSunny.3 mph59%30.27 "Hg10 mi
1:50 PM63 °FSunny.5 mph59%30.27 "Hg10 mi
1:20 PM61 °FSunny.5 mph59%30.27 "Hg10 mi
12:50 PM61 °FSunny.5 mph68%30.30 "Hg10 mi
12:20 PM61 °FSunny.3 mph68%30.30 "Hg10 mi
11:50 AM59 °FSunny.1 mph72%30.30 "Hg10 mi
11:20 AM55 °FSunny.2 mph82%30.33 "Hg10 mi
10:50 AM55 °FSunny.1 mph82%30.30 "Hg10 mi
10:20 AM52 °FClear.2 mph88%30.30 "Hg6 mi
9:50 AM48 °FClear.1 mph100%30.30 "Hg5 mi
9:20 AM46 °FClear.1 mph100%30.30 "Hg5 mi
8:50 AM45 °FClear.1 mph100%30.30 "Hg4 mi
8:20 AM43 °FLight fog.2 mph100%30.30 "Hg5 mi
7:50 AM43 °FLight fog.2 mph100%30.30 "Hg5 mi
7:20 AM45 °FFog.2 mph100%30.30 "Hg3 mi
6:50 AM45 °FFog.1 mph100%30.30 "Hg3 mi
6:20 AM43 °FFog.1 mph100%30.30 "Hg3 mi
5:50 AM45 °FLight fog.1 mph100%30.30 "Hg4 mi
5:20 AM45 °FLight fog.1 mph100%30.30 "Hg4 mi
4:50 AM45 °FLight fog.1 mph100%30.30 "Hg4 mi
4:20 AM43 °FSleet. Light fog.1 mph100%30.30 "Hg4 mi
3:50 AM43 °FSleet. Light fog.1 mph100%30.30 "Hg4 mi
3:20 AM43 °FSleet. Overcast.2 mph100%30.30 "Hg4 mi
2:50 AM45 °FSleet. Overcast.2 mph100%30.30 "Hg3 mi
2:20 AM45 °FSleet. Overcast.1 mph100%30.30 "Hg4 mi
1:50 AM43 °FSleet. Overcast.2 mph100%30.33 "Hg5 mi
1:20 AM45 °FSleet. Overcast.1 mph100%30.30 "Hg5 mi
12:50 AM45 °FSleet. Overcast.1 mph100%30.30 "Hg3 mi
12:20 AM46 °FSleet. Overcast.1 mph100%30.30 "Hg2 mi
11:50 PM
Oct 30
45 °FSleet. Fog.1 mph100%30.30 "Hg4 mi
11:20 PM46 °FSleet. Fog.3 mph100%30.33 "Hg4 mi
10:50 PM46 °FSleet. Fog.1 mph93%30.30 "Hg4 mi
10:20 PM48 °FSleet. Fog.2 mph100%30.30 "Hg4 mi
Weather by CustomWeather, © 2014

See weather overviewHow to use our weather pages